Wetterdaten: Woche 23.05.16 - 29.05.16 (KW21)
Datum Zeit Temperatur Luftfeuchte Luftdruck Niederschlag Windrichtung Sonnenschein Solar Wind
23.05.2016 00:00 13,2 C 74 % 1009,2 hPa 0,0 l/m NW 0,00 h 0 W/m 3,5 km/h (1 Bft)
23.05.2016 01:00 12,9 C 78 % 1009,2 hPa 0,0 l/m W 0,00 h 0 W/m 0,9 km/h (0 Bft)
23.05.2016 02:00 12,9 C 78 % 1008,8 hPa 0,0 l/m W 0,00 h 0 W/m 4,7 km/h (1 Bft)
23.05.2016 03:00 12,7 C 79 % 1008,4 hPa 0,0 l/m SW 0,00 h 0 W/m 6,3 km/h (2 Bft)
23.05.2016 04:00 12,1 C 81 % 1008,0 hPa 0,0 l/m W-SW 0,00 h 0 W/m 9,7 km/h (2 Bft)
23.05.2016 05:00 11,4 C 83 % 1008,2 hPa 0,0 l/m W 0,00 h 0 W/m 9,8 km/h (2 Bft)
23.05.2016 06:00 10,5 C 87 % 1008,3 hPa 0,0 l/m W 0,00 h 6 W/m 9,5 km/h (2 Bft)
23.05.2016 07:00 9,8 C 91 % 1008,4 hPa 0,8 l/m W-SW 0,00 h 13 W/m 9,5 km/h (2 Bft)
23.05.2016 08:00 8,8 C 94 % 1008,6 hPa 2,4 l/m W-SW 0,00 h 29 W/m 18,2 km/h (3 Bft)
23.05.2016 09:00 7,9 C 95 % 1009,6 hPa 3,2 l/m W-SW 0,00 h 45 W/m 23,3 km/h (4 Bft)
23.05.2016 10:00 7,2 C 96 % 1010,6 hPa 3,4 l/m W-SW 0,00 h 84 W/m 26,7 km/h (4 Bft)
23.05.2016 11:00 7,4 C 96 % 1010,8 hPa 0,6 l/m W-SW 0,00 h 129 W/m 15,4 km/h (3 Bft)
23.05.2016 12:00 7,7 C 96 % 1011,0 hPa 0,8 l/m W-SW 0,00 h 96 W/m 16,5 km/h (3 Bft)
23.05.2016 13:00 7,2 C 96 % 1011,5 hPa 2,0 l/m SW 0,00 h 83 W/m 19,3 km/h (3 Bft)
23.05.2016 14:00 7,4 C 97 % 1011,6 hPa 1,4 l/m W-SW 0,00 h 110 W/m 17,7 km/h (3 Bft)
23.05.2016 15:00 8,1 C 97 % 1011,9 hPa 1,0 l/m W-SW 0,00 h 118 W/m 16,0 km/h (3 Bft)
23.05.2016 16:00 7,9 C 97 % 1012,1 hPa 1,0 l/m W-SW 0,00 h 72 W/m 17,6 km/h (3 Bft)
23.05.2016 17:00 8,2 C 97 % 1012,0 hPa 1,4 l/m W 0,00 h 108 W/m 17,0 km/h (3 Bft)
23.05.2016 18:00 8,3 C 96 % 1011,8 hPa 0,0 l/m W-SW 0,00 h 80 W/m 18,0 km/h (3 Bft)
23.05.2016 19:00 8,2 C 96 % 1011,7 hPa 0,0 l/m W-SW 0,00 h 29 W/m 14,4 km/h (3 Bft)
23.05.2016 20:00 8,0 C 96 % 1012,3 hPa 0,0 l/m W-SW 0,00 h 5 W/m 14,5 km/h (3 Bft)
23.05.2016 21:00 7,8 C 97 % 1012,7 hPa 0,4 l/m W-SW 0,00 h 0 W/m 16,6 km/h (3 Bft)
23.05.2016 22:00 7,7 C 97 % 1012,9 hPa 1,8 l/m W-SW 0,00 h 0 W/m 14,8 km/h (3 Bft)
23.05.2016 23:00 7,6 C 98 % 1012,9 hPa 1,0 l/m W-SW 0,00 h 0 W/m 17,8 km/h (3 Bft)
24.05.2016 00:00 7,6 C 98 % 1012,8 hPa 0,8 l/m W-SW 0,00 h 0 W/m 15,3 km/h (3 Bft)
24.05.2016 01:00 7,7 C 98 % 1012,5 hPa 0,4 l/m W-SW 0,00 h 0 W/m 16,8 km/h (3 Bft)
24.05.2016 02:00 7,7 C 98 % 1012,5 hPa 0,2 l/m W-SW 0,00 h 0 W/m 12,0 km/h (2 Bft)
24.05.2016 03:00 7,8 C 98 % 1012,7 hPa 1,0 l/m W-SW 0,00 h 0 W/m 8,3 km/h (2 Bft)
24.05.2016 04:00 7,9 C 99 % 1012,6 hPa 0,2 l/m W-SW 0,00 h 0 W/m 9,4 km/h (2 Bft)
24.05.2016 05:00 8,1 C 99 % 1012,9 hPa 0,0 l/m W-SW 0,00 h 0 W/m 9,9 km/h (2 Bft)
24.05.2016 06:00 8,2 C 99 % 1013,2 hPa 0,2 l/m W-SW 0,00 h 8 W/m 10,6 km/h (2 Bft)
24.05.2016 07:00 8,3 C 99 % 1013,3 hPa 0,0 l/m W-SW 0,00 h 27 W/m 11,1 km/h (2 Bft)
24.05.2016 08:00 8,5 C 98 % 1013,4 hPa 0,0 l/m W 0,00 h 47 W/m 12,0 km/h (2 Bft)
24.05.2016 09:00 8,8 C 98 % 1013,7 hPa 0,0 l/m W-SW 0,00 h 63 W/m 12,9 km/h (3 Bft)
24.05.2016 10:00 9,0 C 96 % 1014,0 hPa 0,0 l/m W 0,00 h 67 W/m 12,5 km/h (3 Bft)
24.05.2016 11:00 9,4 C 96 % 1014,0 hPa 0,0 l/m W 0,00 h 113 W/m 9,8 km/h (2 Bft)
24.05.2016 12:00 10,1 C 95 % 1014,0 hPa 0,2 l/m W 0,00 h 119 W/m 9,5 km/h (2 Bft)
24.05.2016 13:00 9,9 C 94 % 1013,9 hPa 0,0 l/m W-SW 0,00 h 80 W/m 10,8 km/h (2 Bft)
24.05.2016 14:00 10,1 C 95 % 1013,8 hPa 0,2 l/m W-SW 0,00 h 73 W/m 7,8 km/h (2 Bft)
24.05.2016 15:00 10,4 C 95 % 1013,7 hPa 0,2 l/m W-SW 0,00 h 94 W/m 8,0 km/h (2 Bft)
24.05.2016 16:00 10,6 C 95 % 1013,5 hPa 0,0 l/m W 0,00 h 110 W/m 6,2 km/h (2 Bft)
24.05.2016 17:00 10,3 C 94 % 1013,4 hPa 0,0 l/m W 0,00 h 34 W/m 3,8 km/h (1 Bft)
24.05.2016 18:00 10,4 C 95 % 1013,2 hPa 0,0 l/m W-NW 0,00 h 59 W/m 3,2 km/h (1 Bft)
24.05.2016 19:00 10,7 C 93 % 1013,4 hPa 0,0 l/m N 0,00 h 31 W/m 0,9 km/h (0 Bft)
24.05.2016 20:00 10,3 C 94 % 1013,4 hPa 0,0 l/m N 0,00 h 8 W/m 0,4 km/h (0 Bft)
24.05.2016 21:00 9,9 C 95 % 1013,2 hPa 0,0 l/m W-NW 0,00 h 0 W/m 1,3 km/h (1 Bft)
24.05.2016 22:00 9,0 C 96 % 1013,4 hPa 0,0 l/m N 0,00 h 0 W/m 0,0 km/h (0 Bft)
24.05.2016 23:00 8,4 C 98 % 1013,5 hPa 0,0 l/m N 0,00 h 0 W/m 0,0 km/h (0 Bft)
25.05.2016 00:00 8,6 C 98 % 1013,6 hPa 0,0 l/m N 0,00 h 0 W/m 0,0 km/h (0 Bft)
25.05.2016 01:00 8,8 C 99 % 1013,3 hPa 0,0 l/m N 0,00 h 0 W/m 0,0 km/h (0 Bft)
25.05.2016 02:00 8,7 C 99 % 1013,1 hPa 0,0 l/m N 0,00 h 0 W/m 0,0 km/h (0 Bft)
25.05.2016 03:00 8,7 C 99 % 1012,7 hPa 0,0 l/m N 0,00 h 0 W/m 0,1 km/h (0 Bft)
25.05.2016 04:00 8,8 C 99 % 1012,8 hPa 0,0 l/m N 0,00 h 0 W/m 0,0 km/h (0 Bft)
25.05.2016 05:00 8,9 C 98 % 1012,8 hPa 0,0 l/m W-NW 0,00 h 6 W/m 0,9 km/h (0 Bft)
25.05.2016 06:00 8,9 C 96 % 1012,7 hPa 0,0 l/m W-NW 0,00 h 25 W/m 2,1 km/h (1 Bft)
25.05.2016 07:00 9,7 C 92 % 1012,8 hPa 0,0 l/m W-NW 0,42 h 146 W/m 2,1 km/h (1 Bft)
25.05.2016 08:00 11,2 C 85 % 1013,0 hPa 0,0 l/m O-NO 0,58 h 278 W/m 8,6 km/h (2 Bft)
25.05.2016 09:00 11,2 C 84 % 1013,0 hPa 0,0 l/m O 0,00 h 168 W/m 8,0 km/h (2 Bft)
25.05.2016 10:00 11,7 C 84 % 1013,2 hPa 0,0 l/m O 0,00 h 214 W/m 8,3 km/h (2 Bft)
25.05.2016 11:00 12,7 C 81 % 1013,3 hPa 0,0 l/m O 0,17 h 392 W/m 8,0 km/h (2 Bft)
25.05.2016 12:00 14,3 C 76 % 1013,0 hPa 0,0 l/m O 0,83 h 882 W/m 8,3 km/h (2 Bft)
25.05.2016 13:00 15,9 C 71 % 1012,7 hPa 0,0 l/m O 0,83 h 798 W/m 7,4 km/h (2 Bft)
25.05.2016 14:00 17,5 C 66 % 1012,3 hPa 0,0 l/m O 1,00 h 866 W/m 8,2 km/h (2 Bft)
25.05.2016 15:00 18,7 C 61 % 1012,0 hPa 0,0 l/m NO 1,00 h 795 W/m 8,3 km/h (2 Bft)
25.05.2016 16:00 19,6 C 57 % 1011,8 hPa 0,0 l/m N 0,92 h 603 W/m 7,9 km/h (2 Bft)
25.05.2016 17:00 19,6 C 57 % 1011,4 hPa 0,0 l/m O 0,83 h 399 W/m 8,7 km/h (2 Bft)
25.05.2016 18:00 19,4 C 60 % 1011,3 hPa 0,0 l/m O 0,67 h 276 W/m 9,9 km/h (2 Bft)
25.05.2016 19:00 18,1 C 67 % 1011,5 hPa 0,0 l/m O 0,00 h 81 W/m 4,3 km/h (1 Bft)
25.05.2016 20:00 16,3 C 77 % 1011,9 hPa 0,0 l/m O 0,00 h 23 W/m 0,4 km/h (0 Bft)
25.05.2016 21:00 15,1 C 82 % 1012,4 hPa 0,0 l/m N 0,00 h 0 W/m 0,0 km/h (0 Bft)
25.05.2016 22:00 14,3 C 86 % 1012,9 hPa 0,0 l/m N 0,00 h 0 W/m 0,4 km/h (0 Bft)
25.05.2016 23:00 13,8 C 88 % 1013,0 hPa 0,0 l/m O 0,00 h 0 W/m 1,6 km/h (1 Bft)
26.05.2016 00:00 13,3 C 91 % 1013,1 hPa 0,0 l/m N 0,00 h 0 W/m 0,3 km/h (0 Bft)
26.05.2016 01:00 12,6 C 93 % 1013,2 hPa 0,0 l/m O 0,00 h 0 W/m 1,9 km/h (1 Bft)
26.05.2016 02:00 12,0 C 94 % 1013,2 hPa 0,0 l/m O 0,00 h 0 W/m 1,2 km/h (1 Bft)
26.05.2016 03:00 11,0 C 96 % 1013,2 hPa 0,0 l/m N 0,00 h 0 W/m 0,3 km/h (0 Bft)
26.05.2016 04:00 10,5 C 97 % 1013,2 hPa 0,0 l/m N 0,00 h 0 W/m 0,0 km/h (0 Bft)
26.05.2016 05:00 9,9 C 98 % 1013,4 hPa 0,0 l/m O 0,00 h 8 W/m 1,7 km/h (1 Bft)
26.05.2016 06:00 9,9 C 98 % 1013,5 hPa 0,0 l/m N 0,00 h 47 W/m 0,0 km/h (0 Bft)
26.05.2016 07:00 11,5 C 96 % 1013,9 hPa 0,0 l/m N 0,58 h 179 W/m 0,0 km/h (0 Bft)
26.05.2016 08:00 13,9 C 91 % 1014,0 hPa 0,0 l/m N 1,00 h 356 W/m 0,0 km/h (0 Bft)
26.05.2016 09:00 16,3 C 82 % 1013,9 hPa 0,0 l/m O 1,00 h 526 W/m 1,7 km/h (1 Bft)
26.05.2016 10:00 18,4 C 73 % 1013,7 hPa 0,0 l/m O 1,00 h 683 W/m 6,3 km/h (2 Bft)
26.05.2016 11:00 19,6 C 65 % 1013,4 hPa 0,0 l/m S-SW 1,00 h 789 W/m 9,1 km/h (2 Bft)
26.05.2016 12:00 21,2 C 57 % 1013,1 hPa 0,0 l/m SO 0,92 h 817 W/m 7,6 km/h (2 Bft)
26.05.2016 13:00 21,9 C 56 % 1012,8 hPa 0,0 l/m W-SW 0,42 h 548 W/m 9,0 km/h (2 Bft)
26.05.2016 14:00 22,5 C 56 % 1012,3 hPa 0,0 l/m O-SO 0,58 h 588 W/m 7,8 km/h (2 Bft)
26.05.2016 15:00 23,2 C 51 % 1012,0 hPa 0,0 l/m N-NO 0,75 h 644 W/m 7,9 km/h (2 Bft)
26.05.2016 16:00 23,8 C 49 % 1011,6 hPa 0,0 l/m O-SO 0,58 h 509 W/m 9,8 km/h (2 Bft)
26.05.2016 17:00 23,8 C 49 % 1011,4 hPa 0,0 l/m O-SO 0,67 h 439 W/m 12,9 km/h (3 Bft)
26.05.2016 18:00 22,0 C 56 % 1011,3 hPa 0,0 l/m N-NO 0,42 h 253 W/m 14,8 km/h (3 Bft)
26.05.2016 19:00 20,4 C 62 % 1011,3 hPa 0,0 l/m N-NO 0,00 h 66 W/m 8,0 km/h (2 Bft)
26.05.2016 20:00 18,6 C 68 % 1011,4 hPa 0,0 l/m N-NO 0,08 h 19 W/m 4,0 km/h (1 Bft)
26.05.2016 21:00 16,2 C 79 % 1011,7 hPa 0,0 l/m N 0,00 h 5 W/m 0,1 km/h (0 Bft)
26.05.2016 22:00 15,0 C 83 % 1011,6 hPa 0,0 l/m N-NO 0,00 h 0 W/m 1,3 km/h (1 Bft)
26.05.2016 23:00 14,9 C 84 % 1011,6 hPa 0,0 l/m N-NO 0,00 h 0 W/m 2,7 km/h (1 Bft)
27.05.2016 00:00 14,0 C 87 % 1011,4 hPa 0,0 l/m N 0,00 h 0 W/m 0,8 km/h (0 Bft)
27.05.2016 01:00 13,4 C 90 % 1011,0 hPa 0,0 l/m N 0,00 h 0 W/m 0,8 km/h (0 Bft)
27.05.2016 02:00 13,2 C 91 % 1010,5 hPa 0,0 l/m N 0,00 h 0 W/m 0,5 km/h (0 Bft)
27.05.2016 03:00 12,5 C 93 % 1010,3 hPa 0,0 l/m N 0,00 h 0 W/m 0,3 km/h (0 Bft)
27.05.2016 04:00 12,9 C 93 % 1010,5 hPa 0,0 l/m N-NO 0,00 h 0 W/m 3,2 km/h (1 Bft)
27.05.2016 05:00 12,8 C 93 % 1010,6 hPa 0,0 l/m N 0,00 h 9 W/m 0,0 km/h (0 Bft)
27.05.2016 06:00 12,8 C 95 % 1010,7 hPa 0,0 l/m N 0,00 h 36 W/m 0,0 km/h (0 Bft)
27.05.2016 07:00 13,5 C 94 % 1011,2 hPa 0,0 l/m N-NO 0,00 h 94 W/m 1,9 km/h (1 Bft)
27.05.2016 08:00 15,5 C 89 % 1011,7 hPa 0,0 l/m N 0,17 h 208 W/m 0,0 km/h (0 Bft)
27.05.2016 09:00 17,3 C 84 % 1012,2 hPa 0,0 l/m O-NO 0,17 h 205 W/m 5,7 km/h (1 Bft)
27.05.2016 10:00 18,4 C 82 % 1012,2 hPa 0,0 l/m S-SO 0,08 h 250 W/m 8,6 km/h (2 Bft)
27.05.2016 11:00 19,7 C 77 % 1012,2 hPa 0,0 l/m S 0,08 h 346 W/m 7,4 km/h (2 Bft)
27.05.2016 12:00 21,3 C 68 % 1011,8 hPa 0,0 l/m S-SW 0,08 h 397 W/m 4,8 km/h (1 Bft)
27.05.2016 13:00 22,1 C 64 % 1011,4 hPa 0,0 l/m S 0,33 h 459 W/m 4,8 km/h (1 Bft)
27.05.2016 14:00 23,6 C 60 % 1011,1 hPa 0,0 l/m O-SO 0,75 h 606 W/m 7,8 km/h (2 Bft)
27.05.2016 15:00 24,7 C 55 % 1010,8 hPa 0,0 l/m O-SO 0,92 h 670 W/m 10,1 km/h (2 Bft)
27.05.2016 16:00 25,4 C 52 % 1010,5 hPa 0,0 l/m NO 0,83 h 597 W/m 8,4 km/h (2 Bft)
27.05.2016 17:00 25,8 C 51 % 1010,2 hPa 0,0 l/m S-SW 0,92 h 521 W/m 6,3 km/h (2 Bft)
27.05.2016 18:00 25,5 C 48 % 1009,9 hPa 0,0 l/m N 0,75 h 303 W/m 3,3 km/h (1 Bft)
27.05.2016 19:00 23,4 C 61 % 1010,0 hPa 0,0 l/m N-NO 0,25 h 109 W/m 12,5 km/h (3 Bft)
27.05.2016 20:00 20,5 C 69 % 1010,3 hPa 0,0 l/m N-NO 0,08 h 17 W/m 8,3 km/h (2 Bft)
27.05.2016 21:00 18,4 C 78 % 1010,8 hPa 0,0 l/m N-NO 0,00 h 5 W/m 1,6 km/h (1 Bft)
27.05.2016 22:00 18,0 C 79 % 1011,7 hPa 0,0 l/m N 0,00 h 0 W/m 10,6 km/h (2 Bft)
27.05.2016 23:00 16,3 C 84 % 1011,4 hPa 0,0 l/m N-NO 0,00 h 0 W/m 7,0 km/h (2 Bft)
28.05.2016 00:00 14,5 C 90 % 1011,6 hPa 0,0 l/m N 0,00 h 0 W/m 0,9 km/h (0 Bft)
28.05.2016 01:00 13,7 C 93 % 1011,0 hPa 0,0 l/m N 0,00 h 0 W/m 0,0 km/h (0 Bft)
28.05.2016 02:00 13,3 C 94 % 1010,7 hPa 0,0 l/m N-NO 0,00 h 0 W/m 2,0 km/h (1 Bft)
28.05.2016 03:00 13,6 C 96 % 1010,6 hPa 0,0 l/m N 0,00 h 0 W/m 0,4 km/h (0 Bft)
28.05.2016 04:00 13,8 C 96 % 1010,9 hPa 0,0 l/m SW 0,00 h 0 W/m 1,9 km/h (1 Bft)
28.05.2016 05:00 14,5 C 96 % 1011,9 hPa 1,0 l/m W-SW 0,00 h 0 W/m 21,6 km/h (4 Bft)
28.05.2016 06:00 14,4 C 95 % 1011,6 hPa 1,6 l/m W-SW 0,00 h 14 W/m 12,9 km/h (3 Bft)
28.05.2016 07:00 14,4 C 98 % 1010,7 hPa 0,0 l/m S 0,00 h 78 W/m 10,2 km/h (2 Bft)
28.05.2016 08:00 15,6 C 96 % 1010,4 hPa 0,0 l/m SW 0,75 h 344 W/m 18,1 km/h (3 Bft)
28.05.2016 09:00 17,5 C 90 % 1010,6 hPa 0,0 l/m W 0,75 h 513 W/m 8,3 km/h (2 Bft)
28.05.2016 10:00 18,8 C 85 % 1010,2 hPa 0,0 l/m NW 0,33 h 309 W/m 3,5 km/h (1 Bft)
28.05.2016 11:00 19,1 C 84 % 1009,9 hPa 0,0 l/m W-SW 0,00 h 196 W/m 6,2 km/h (2 Bft)
28.05.2016 12:00 19,8 C 81 % 1010,0 hPa 0,0 l/m W-SW 0,00 h 271 W/m 8,4 km/h (2 Bft)
28.05.2016 13:00 18,3 C 86 % 1010,0 hPa 0,2 l/m W 0,00 h 178 W/m 9,2 km/h (2 Bft)
28.05.2016 14:00 19,0 C 83 % 1009,2 hPa 0,0 l/m W 0,00 h 285 W/m 5,6 km/h (1 Bft)
28.05.2016 15:00 21,0 C 77 % 1008,8 hPa 0,0 l/m SW 0,92 h 777 W/m 11,0 km/h (2 Bft)
28.05.2016 16:00 21,7 C 69 % 1008,2 hPa 0,0 l/m SW 0,50 h 481 W/m 9,8 km/h (2 Bft)
28.05.2016 17:00 22,4 C 65 % 1007,6 hPa 0,0 l/m S-SW 1,00 h 532 W/m 8,7 km/h (2 Bft)
28.05.2016 18:00 22,3 C 64 % 1007,0 hPa 0,0 l/m S-SW 0,92 h 354 W/m 4,0 km/h (1 Bft)
28.05.2016 19:00 21,8 C 65 % 1006,6 hPa 0,0 l/m N 0,58 h 170 W/m 0,7 km/h (0 Bft)
28.05.2016 20:00 19,5 C 79 % 1006,1 hPa 0,0 l/m N 0,08 h 20 W/m 0,3 km/h (0 Bft)
28.05.2016 21:00 17,3 C 85 % 1006,3 hPa 0,4 l/m S-SW 0,00 h 0 W/m 1,2 km/h (1 Bft)
28.05.2016 22:00 16,5 C 93 % 1006,1 hPa 0,2 l/m N 0,00 h 0 W/m 1,1 km/h (0 Bft)
28.05.2016 23:00 16,2 C 96 % 1005,6 hPa 0,0 l/m S-SW 0,00 h 0 W/m 1,2 km/h (1 Bft)
29.05.2016 00:00 16,0 C 96 % 1004,9 hPa 0,0 l/m SW 0,00 h 0 W/m 2,4 km/h (1 Bft)
29.05.2016 01:00 15,9 C 96 % 1005,0 hPa 0,4 l/m SW 0,00 h 0 W/m 7,0 km/h (2 Bft)
29.05.2016 02:00 15,7 C 96 % 1004,8 hPa 0,0 l/m N-NW 0,00 h 0 W/m 7,6 km/h (2 Bft)
29.05.2016 03:00 15,4 C 98 % 1004,7 hPa 3,8 l/m W 0,00 h 0 W/m 7,4 km/h (2 Bft)
29.05.2016 04:00 15,1 C 97 % 1005,0 hPa 0,0 l/m W 0,00 h 0 W/m 12,9 km/h (3 Bft)
29.05.2016 05:00 14,0 C 94 % 1004,3 hPa 0,0 l/m N-NW 0,00 h 8 W/m 6,4 km/h (2 Bft)
29.05.2016 06:00 13,3 C 98 % 1004,1 hPa 0,0 l/m N 0,00 h 33 W/m 0,8 km/h (0 Bft)
29.05.2016 07:00 14,2 C 97 % 1004,1 hPa 0,0 l/m SW 0,25 h 112 W/m 7,2 km/h (2 Bft)
29.05.2016 08:00 15,7 C 92 % 1004,0 hPa 0,0 l/m SW 0,00 h 124 W/m 6,3 km/h (2 Bft)
29.05.2016 09:00 16,2 C 90 % 1003,9 hPa 0,0 l/m SW 0,00 h 95 W/m 3,3 km/h (1 Bft)
29.05.2016 10:00 17,4 C 88 % 1003,3 hPa 0,0 l/m N 0,17 h 299 W/m 3,6 km/h (1 Bft)
29.05.2016 11:00 19,1 C 80 % 1002,9 hPa 0,0 l/m SW 0,33 h 396 W/m 3,1 km/h (1 Bft)
29.05.2016 12:00 19,4 C 78 % 1002,5 hPa 0,0 l/m N-NW 0,00 h 217 W/m 6,8 km/h (2 Bft)
29.05.2016 13:00 19,4 C 81 % 1002,1 hPa 0,0 l/m N-NW 0,00 h 248 W/m 12,1 km/h (2 Bft)
29.05.2016 14:00 18,6 C 82 % 1001,5 hPa 0,0 l/m NW 0,00 h 174 W/m 14,2 km/h (3 Bft)
29.05.2016 15:00 17,4 C 87 % 1000,6 hPa 1,4 l/m W-NW 0,00 h 37 W/m 20,4 km/h (4 Bft)
29.05.2016 16:00 14,9 C 95 % 1001,5 hPa 8,2 l/m W-NW 0,00 h 7 W/m 27,7 km/h (4 Bft)
29.05.2016 17:00 13,5 C 96 % 1001,6 hPa 3,0 l/m W-NW 0,00 h 7 W/m 29,4 km/h (5 Bft)
29.05.2016 18:00 13,4 C 97 % 1001,8 hPa 0,8 l/m W-NW 0,00 h 16 W/m 16,5 km/h (3 Bft)
29.05.2016 19:00 13,6 C 98 % 1002,5 hPa 0,4 l/m W-SW 0,00 h 10 W/m 3,6 km/h (1 Bft)
29.05.2016 20:00 13,5 C 98 % 1002,9 hPa 5,2 l/m W-SW 0,00 h 0 W/m 3,5 km/h (1 Bft)
29.05.2016 21:00 13,5 C 98 % 1002,9 hPa 1,8 l/m W-SW 0,00 h 0 W/m 5,3 km/h (1 Bft)
29.05.2016 22:00 13,5 C 99 % 1003,3 hPa 0,2 l/m W-SW 0,00 h 0 W/m 10,6 km/h (2 Bft)
29.05.2016 23:00 13,3 C 99 % 1003,5 hPa 0,8 l/m W-SW 0,00 h 0 W/m 15,3 km/h (3 Bft)
Min-Datum _ 23.05.16 26.05.16 29.05.16 - - - - 23.05.16
_ Min-Zeit 13:50 17:05 15:15 - - - - 00:20
Minimum _ 7,0 C 45 % 1000,4 hPa - - - - 0,0 km/h (0 Bft)
Max-Datum _ 27.05.16 24.05.16 24.05.16 29.05.16 - 25.05.16 26.05.16 29.05.16
_ Max-Zeit 17:05 03:30 12:30 16:15 - 07:35 14:00 16:35
Maximum _ 25,9 C 99 % 1014,2 hPa 8,2 l/m - 0,08 h 1030 W/m 38,6 km/h
W-NW (5 Bft)
Durchschnitt _ 14,3 C 86 % 1010,4 hPa #54,0 l/m W-SW #28:15 h 232 W/m 7,4 km/h (2 Bft)